Location: Blankensee
(53.5126°N, 14.3055°E)
Time: 18:51:17
(UTC+00:00)

Cosmos 1805 - Pass Details

Date: 08 August 2020
Orbit: 526 x 530 km, 82.5° (Epoch: 20 September)

Event Time Altitude Azimuth Distance (km) Brightness Sun altitude
Exits shadow 01:12:34 30° 199° (SSW) 963 4.0 -15.5°
Maximum altitude 01:14:23 78° 281° (W) 546 3.2 -15.4°
Drops below altitude 10° 01:18:19 10° 9° (N) 1,783 7.0 -15.1°
Sets 01:20:28 0° 11° (N) 2,678 8.2 -14.9°
